When you browse on this site, cookies collect data to enhance your experience and personalize the content and advertising you see.
Visit our Privacy Policy to learn more. By continuing to use the site, you agree to this use of cookies and data.
  • In Hungary
  • List of Countries
  • For 7 days
  • Water Temperature
  • Satellite Maps
  • Weather Map
  • News
  • Weather Widgets
  • user-avatar
    Login

    Hourly Weather Maidstone

    Today, 22 January, Tuesday

    Time Temperature Precipitation Wind Pressure Humidity
    00:00 +3°C° 0 mm 6 mps 755 mmHg 85%
    01:00 +3°C° 0.7 mm 7 mps 754 mmHg 87%
    02:00 +4°C° 0.7 mm 8 mps 753 mmHg 88%
    03:00 +3°C° 0.7 mm 9 mps 751 mmHg 90%
    04:00 +2°C° 1.5 mm 8 mps 751 mmHg 87%
    05:00 +2°C° 1.5 mm 7 mps 750 mmHg 84%
    06:00 +2°C° 1.5 mm 5 mps 750 mmHg 80%
    07:00 +1°C° 0 mm 5 mps 750 mmHg 81%
    08:00 0°C° 0 mm 5 mps 750 mmHg 81%
    09:00 -1°C° 0 mm 4 mps 750 mmHg 82%
    10:00 0°C° 0 mm 4 mps 750 mmHg 78%
    11:00 +1°C° 0 mm 4 mps 750 mmHg 74%
    12:00 +3°C° 0 mm 4 mps 749 mmHg 71%
    13:00 +3°C° 0 mm 3 mps 749 mmHg 72%
    14:00 +3°C° 0 mm 3 mps 748 mmHg 72%
    15:00 +4°C° 0 mm 2 mps 748 mmHg 73%
    16:00 +4°C° 0.1 mm 2 mps 748 mmHg 75%
    17:00 +4°C° 0.1 mm 1 mps 747 mmHg 76%
    18:00 +3°C° 0.1 mm 1 mps 747 mmHg 77%
    19:00 +3°C° 0.4 mm 1 mps 747 mmHg 80%
    20:00 +3°C° 0.4 mm 1 mps 747 mmHg 83%
    21:00 +3°C° 0.4 mm 1 mps 747 mmHg 86%
    22:00 +3°C° 0.6 mm 1 mps 746 mmHg 87%
    23:00 +2°C° 0.6 mm 2 mps 746 mmHg 89%

    Tomorrow, 23 January, Wednesday

    Time Temperature Precipitation Wind Pressure Humidity
    00:00 +1°C° 0.6 mm 2 mps 746 mmHg 91%
    01:00 0°C° 0.1 mm 3 mps 747 mmHg 91%
    02:00 -1°C° 0.1 mm 3 mps 747 mmHg 90%
    03:00 -2°C° 0.1 mm 4 mps 747 mmHg 89%
    04:00 -3°C° 0 mm 4 mps 747 mmHg 89%
    05:00 -3°C° 0 mm 4 mps 747 mmHg 89%
    06:00 -3°C° 0 mm 4 mps 748 mmHg 88%
    07:00 -3°C° 0 mm 4 mps 748 mmHg 88%
    08:00 -3°C° 0 mm 4 mps 749 mmHg 87%
    09:00 -3°C° 0 mm 4 mps 750 mmHg 86%
    10:00 -2°C° 0 mm 4 mps 750 mmHg 85%
    11:00 -1°C° 0 mm 4 mps 751 mmHg 83%
    12:00 0°C° 0 mm 5 mps 751 mmHg 82%
    13:00 0°C° 0 mm 4 mps 752 mmHg 82%
    14:00 0°C° 0 mm 4 mps 752 mmHg 82%
    15:00 0°C° 0 mm 4 mps 753 mmHg 83%
    16:00 -1°C° 0 mm 4 mps 753 mmHg 84%
    17:00 -1°C° 0 mm 4 mps 754 mmHg 86%
    18:00 -2°C° 0 mm 4 mps 755 mmHg 88%
    19:00 -2°C° 0 mm 4 mps 755 mmHg 88%
    20:00 -1°C° 0 mm 3 mps 756 mmHg 89%
    21:00 -2°C° 0 mm 3 mps 757 mmHg 90%
    22:00 -2°C° 0 mm 3 mps 757 mmHg 90%
    23:00 -2°C° 0 mm 3 mps 757 mmHg 91%

    Day after tomorrow, 24 January, Thursday

    Time Temperature Precipitation Wind Pressure Humidity
    00:00 -2°C° 0 mm 3 mps 758 mmHg 91%
    01:00 -2°C° 0 mm 3 mps 758 mmHg 91%
    02:00 -2°C° 0 mm 2 mps 759 mmHg 90%
    03:00 -2°C° 0 mm 2 mps 759 mmHg 90%
    04:00 -2°C° 0 mm 2 mps 760 mmHg 89%
    05:00 -2°C° 0 mm 2 mps 760 mmHg 88%
    06:00 0°C° 0 mm 1 mps 760 mmHg 87%
    07:00 0°C° 0 mm 1 mps 760 mmHg 85%
    08:00 0°C° 0 mm 1 mps 761 mmHg 83%
    09:00 +1°C° 0 mm 1 mps 761 mmHg 81%
    10:00 +1°C° 0 mm 2 mps 761 mmHg 78%
    11:00 +2°C° 0 mm 2 mps 761 mmHg 75%
    12:00 +3°C° 0 mm 2 mps 761 mmHg 72%
    13:00 +3°C° 0 mm 2 mps 761 mmHg 74%
    14:00 +3°C° 0 mm 2 mps 760 mmHg 75%
    15:00 +3°C° 0 mm 2 mps 760 mmHg 76%
    16:00 +2°C° 0.4 mm 3 mps 760 mmHg 81%
    17:00 +2°C° 0.4 mm 3 mps 760 mmHg 86%
    18:00 +1°C° 0.4 mm 4 mps 760 mmHg 91%
    19:00 +3°C° 0.4 mm 4 mps 760 mmHg 93%
    20:00 +3°C° 0.4 mm 4 mps 760 mmHg 95%
    21:00 +4°C° 0.4 mm 4 mps 760 mmHg 97%
    22:00 +4°C° 0.1 mm 4 mps 760 mmHg 97%
    23:00 +4°C° 0.1 mm 4 mps 759 mmHg 98%

    25 January, Friday

    Time Temperature Precipitation Wind Pressure Humidity
    00:00 +4°C° 0.1 mm 3 mps 759 mmHg 98%
    01:00 +4°C° 0.1 mm 4 mps 759 mmHg 98%
    02:00 +4°C° 0.1 mm 4 mps 759 mmHg 97%
    03:00 +4°C° 0.1 mm 4 mps 759 mmHg 97%
    04:00 +4°C° 0 mm 4 mps 759 mmHg 97%
    05:00 +5°C° 0 mm 4 mps 759 mmHg 96%
    06:00 +5°C° 0 mm 4 mps 759 mmHg 96%
    07:00 +5°C° 0 mm 4 mps 759 mmHg 96%
    08:00 +5°C° 0 mm 4 mps 759 mmHg 96%
    09:00 +5°C° 0 mm 4 mps 759 mmHg 96%
    10:00 +6°C° 0 mm 4 mps 759 mmHg 93%
    11:00 +6°C° 0 mm 5 mps 759 mmHg 91%
    12:00 +7°C° 0 mm 5 mps 759 mmHg 88%
    13:00 +7°C° 0 mm 5 mps 759 mmHg 86%
    14:00 +7°C° 0 mm 5 mps 758 mmHg 84%
    15:00 +7°C° 0 mm 5 mps 758 mmHg 82%
    16:00 +7°C° 0 mm 5 mps 758 mmHg 85%
    17:00 +6°C° 0 mm 5 mps 758 mmHg 87%
    18:00 +6°C° 0 mm 5 mps 757 mmHg 90%
    19:00 +6°C° 0 mm 5 mps 757 mmHg 91%
    20:00 +6°C° 0 mm 5 mps 757 mmHg 93%
    21:00 +6°C° 0 mm 5 mps 756 mmHg 94%
    22:00 +7°C° 0.1 mm 6 mps 756 mmHg 94%
    23:00 +7°C° 0.1 mm 6 mps 756 mmHg 94%

    26 January, Saturday

    Time Temperature Precipitation Wind Pressure Humidity
    00:00 +8°C° 0.1 mm 6 mps 755 mmHg 94%
    01:00 +8°C° 0.1 mm 6 mps 755 mmHg 94%
    02:00 +8°C° 0.1 mm 6 mps 754 mmHg 94%
    03:00 +8°C° 0.1 mm 5 mps 753 mmHg 94%
    04:00 +8°C° 1.1 mm 6 mps 752 mmHg 93%
    05:00 +9°C° 1.1 mm 7 mps 752 mmHg 93%
    06:00 +9°C° 1.1 mm 7 mps 751 mmHg 93%
    07:00 +9°C° 1.2 mm 7 mps 750 mmHg 93%
    08:00 +9°C° 1.2 mm 7 mps 750 mmHg 93%
    09:00 +9°C° 1.2 mm 8 mps 750 mmHg 93%
    10:00 +6°C° 1.5 mm 7 mps 750 mmHg 91%
    11:00 +5°C° 1.5 mm 6 mps 750 mmHg 88%
    12:00 +3°C° 1.5 mm 6 mps 750 mmHg 86%
    13:00 +3°C° 0.5 mm 5 mps 750 mmHg 83%
    14:00 +3°C° 0.5 mm 5 mps 750 mmHg 80%
    15:00 +5°C° 0.5 mm 5 mps 750 mmHg 77%
    16:00 +3°C° 0 mm 5 mps 751 mmHg 77%
    17:00 +2°C° 0 mm 5 mps 751 mmHg 77%
    18:00 +2°C° 0 mm 5 mps 752 mmHg 77%
    19:00 +1°C° 0 mm 5 mps 752 mmHg 77%
    20:00 +1°C° 0 mm 5 mps 752 mmHg 77%
    21:00 +1°C° 0 mm 6 mps 753 mmHg 77%
    22:00 +1°C° 0 mm 6 mps 753 mmHg 78%
    23:00 -1°C° 0 mm 6 mps 753 mmHg 78%

    27 January, Sunday

    Time Temperature Precipitation Wind Pressure Humidity
    00:00 -1°C° 0 mm 6 mps 753 mmHg 79%
    01:00 -1°C° 0 mm 6 mps 753 mmHg 80%
    02:00 0°C° 0 mm 5 mps 753 mmHg 80%
    03:00 0°C° 0 mm 5 mps 753 mmHg 81%
    04:00 0°C° 0 mm 5 mps 753 mmHg 82%
    05:00 -1°C° 0 mm 5 mps 753 mmHg 83%
    06:00 -1°C° 0 mm 5 mps 753 mmHg 84%
    07:00 0°C° 0.1 mm 4 mps 752 mmHg 83%
    08:00 +1°C° 0.1 mm 3 mps 751 mmHg 82%
    09:00 +2°C° 0.1 mm 3 mps 750 mmHg 81%
    10:00 +2°C° 1.7 mm 3 mps 749 mmHg 86%
    11:00 +3°C° 1.7 mm 3 mps 748 mmHg 90%
    12:00 +3°C° 1.7 mm 4 mps 747 mmHg 94%
    13:00 +3°C° 0 mm 4 mps 746 mmHg 93%
    14:00 +4°C° 0 mm 4 mps 746 mmHg 92%
    15:00 +3°C° 0 mm 5 mps 745 mmHg 90%
    16:00 +2°C° 0 mm 5 mps 746 mmHg 90%
    17:00 +2°C° 0 mm 6 mps 747 mmHg 89%
    18:00 +1°C° 0 mm 6 mps 747 mmHg 89%
    19:00 0°C° 0.1 mm 7 mps 748 mmHg 87%
    20:00 0°C° 0.1 mm 7 mps 750 mmHg 85%
    21:00 0°C° 0.1 mm 8 mps 751 mmHg 83%
    22:00 -1°C° 0 mm 7 mps 751 mmHg 80%
    23:00 -2°C° 0 mm 6 mps 752 mmHg 78%
    Show more